Time,TemperatureF,DewpointF,PressureIn,WindDirection,WindDirectionDegrees,WindSpeedMPH,WindSpeedGustMPH,Humidity,HourlyPrecipIn,Conditions,Clouds,dailyrainin,SoftwareType,DateUTC
2016-08-27 00:04:00,72.3,50.4,29.79,South,178,2.0,2.0,46,0.00,,,0.00,meteobridge,2016-08-27 07:04:00,
2016-08-27 00:09:00,72.7,50.2,29.79,SE,125,0.9,2.0,45,0.00,,,0.00,meteobridge,2016-08-27 07:09:00,
2016-08-27 00:14:00,73.0,50.4,29.79,SW,223,2.0,2.9,45,0.00,,,0.00,meteobridge,2016-08-27 07:14:00,
2016-08-27 00:19:00,73.4,50.2,29.78,ESE,107,0.9,2.0,44,0.00,,,0.00,meteobridge,2016-08-27 07:19:00,
2016-08-27 00:24:00,73.2,50.5,29.78,ESE,113,2.0,2.9,45,0.00,,,0.00,meteobridge,2016-08-27 07:24:00,
2016-08-27 00:29:00,72.9,50.4,29.78,SE,132,0.9,2.0,45,0.00,,,0.00,meteobridge,2016-08-27 07:29:00,
2016-08-27 00:34:00,72.3,50.4,29.78,SSE,163,0.9,2.0,46,0.00,,,0.00,meteobridge,2016-08-27 07:34:00,
2016-08-27 00:39:00,72.1,50.7,29.78,SE,141,0.9,2.0,47,0.00,,,0.00,meteobridge,2016-08-27 07:39:00,
2016-08-27 00:44:00,72.0,50.7,29.78,South,189,2.0,2.9,47,0.00,,,0.00,meteobridge,2016-08-27 07:44:00,
2016-08-27 00:49:00,72.0,50.7,29.78,SE,124,2.0,2.9,47,0.00,,,0.00,meteobridge,2016-08-27 07:49:00,
2016-08-27 00:54:00,72.0,50.7,29.78,SSW,195,2.9,4.0,47,0.00,,,0.00,meteobridge,2016-08-27 07:54:00,
2016-08-27 00:59:00,72.1,50.2,29.78,ESE,105,0.0,2.0,46,0.00,,,0.00,meteobridge,2016-08-27 07:59:00,
2016-08-27 01:04:00,72.0,50.7,29.78,East,86,0.0,4.0,47,0.00,,,0.00,meteobridge,2016-08-27 08:04:00,
2016-08-27 01:10:00,71.8,50.5,29.78,ESE,103,0.0,2.0,47,0.00,,,0.00,meteobridge,2016-08-27 08:10:00,
2016-08-27 01:15:00,71.2,50.5,29.78,ENE,77,0.0,2.0,48,0.00,,,0.00,meteobridge,2016-08-27 08:15:00,
2016-08-27 01:20:00,70.9,50.2,29.78,East,84,0.0,0.9,48,0.00,,,0.00,meteobridge,2016-08-27 08:20:00,
2016-08-27 01:25:00,70.5,50.4,29.78,SE,137,0.9,2.0,49,0.00,,,0.00,meteobridge,2016-08-27 08:25:00,
2016-08-27 01:30:00,70.3,49.6,29.78,SSW,212,0.9,4.9,48,0.00,,,0.00,meteobridge,2016-08-27 08:30:00,
2016-08-27 01:35:00,70.2,50.2,29.78,SW,217,0.9,4.0,49,0.00,,,0.00,meteobridge,2016-08-27 08:35:00,
2016-08-27 01:40:00,70.2,50.2,29.78,SSW,193,0.0,2.9,49,0.00,,,0.00,meteobridge,2016-08-27 08:40:00,
2016-08-27 01:45:00,70.0,50.0,29.78,South,174,0.0,2.9,49,0.00,,,0.00,meteobridge,2016-08-27 08:45:00,
2016-08-27 01:50:00,69.8,49.8,29.78,SSW,211,0.0,0.9,49,0.00,,,0.00,meteobridge,2016-08-27 08:50:00,
2016-08-27 01:55:00,69.6,49.6,29.78,SSE,152,0.9,4.0,49,0.00,,,0.00,meteobridge,2016-08-27 08:55:00,
2016-08-27 02:00:00,69.8,49.8,29.78,SE,131,0.9,2.9,49,0.00,,,0.00,meteobridge,2016-08-27 09:00:00,
2016-08-27 02:05:00,69.4,50.0,29.78,SSW,199,0.9,2.0,50,0.00,,,0.00,meteobridge,2016-08-27 09:05:00,
2016-08-27 02:10:00,69.1,49.6,29.78,SSE,147,2.9,4.0,50,0.00,,,0.00,meteobridge,2016-08-27 09:10:00,
2016-08-27 02:15:00,68.7,49.8,29.78,ESE,112,0.9,2.9,51,0.00,,,0.00,meteobridge,2016-08-27 09:15:00,
2016-08-27 02:21:00,68.5,50.2,29.78,East,89,0.0,2.0,52,0.00,,,0.00,meteobridge,2016-08-27 09:21:00,
2016-08-27 02:26:00,68.4,50.0,29.78,SW,227,2.0,2.9,52,0.00,,,0.00,meteobridge,2016-08-27 09:26:00,
2016-08-27 02:31:00,68.2,50.4,29.78,SSE,150,0.9,0.9,53,0.00,,,0.00,meteobridge,2016-08-27 09:31:00,
2016-08-27 02:36:00,67.8,50.0,29.78,ESE,113,0.9,2.9,53,0.00,,,0.00,meteobridge,2016-08-27 09:36:00,
2016-08-27 02:41:00,67.6,49.8,29.78,SSE,153,2.0,2.9,53,0.00,,,0.00,meteobridge,2016-08-27 09:41:00,
2016-08-27 02:46:00,67.6,49.8,29.78,SE,143,0.0,2.0,53,0.00,,,0.00,meteobridge,2016-08-27 09:46:00,
2016-08-27 02:51:00,67.3,49.1,29.78,SE,141,2.0,6.9,52,0.00,,,0.00,meteobridge,2016-08-27 09:51:00,
2016-08-27 02:56:00,67.3,49.1,29.78,East,79,2.0,10.1,52,0.00,,,0.00,meteobridge,2016-08-27 09:56:00,
2016-08-27 03:06:00,66.9,48.7,29.78,SSE,162,4.9,8.9,52,0.00,,,0.00,meteobridge,2016-08-27 10:06:00,
2016-08-27 03:12:00,66.9,48.7,29.78,SE,137,8.1,8.9,52,0.00,,,0.00,meteobridge,2016-08-27 10:12:00,
2016-08-27 03:17:00,66.7,48.6,29.78,SSE,159,4.0,10.1,52,0.00,,,0.00,meteobridge,2016-08-27 10:17:00,
2016-08-27 03:22:00,66.7,48.6,29.78,SSW,213,2.0,6.0,52,0.00,,,0.00,meteobridge,2016-08-27 10:22:00,
2016-08-27 03:27:00,66.4,48.2,29.78,SE,146,8.1,8.9,52,0.00,,,0.00,meteobridge,2016-08-27 10:27:00,
2016-08-27 03:32:00,66.4,48.2,29.78,SSE,161,0.9,2.9,52,0.00,,,0.00,meteobridge,2016-08-27 10:32:00,
2016-08-27 03:37:00,66.0,48.4,29.78,South,191,0.0,0.9,53,0.00,,,0.00,meteobridge,2016-08-27 10:37:00,
2016-08-27 03:42:00,65.7,48.0,29.78,SSW,197,0.9,2.0,53,0.00,,,0.00,meteobridge,2016-08-27 10:42:00,
2016-08-27 03:47:00,65.5,48.4,29.78,East,79,2.9,4.9,54,0.00,,,0.00,meteobridge,2016-08-27 10:47:00,
2016-08-27 03:52:00,65.1,48.6,29.78,South,182,4.9,4.9,55,0.00,,,0.00,meteobridge,2016-08-27 10:52:00,
2016-08-27 04:02:00,64.9,48.9,29.78,SW,217,0.9,8.1,56,0.00,,,0.00,meteobridge,2016-08-27 11:02:00,
2016-08-27 04:07:00,64.8,48.7,29.78,SE,138,2.9,6.9,56,0.00,,,0.00,meteobridge,2016-08-27 11:07:00,
2016-08-27 04:12:00,64.6,48.9,29.78,East,94,2.0,6.0,57,0.00,,,0.00,meteobridge,2016-08-27 11:12:00,
2016-08-27 04:17:00,64.6,49.5,29.78,ENE,75,2.0,4.9,58,0.00,,,0.00,meteobridge,2016-08-27 11:17:00,
2016-08-27 04:22:00,64.2,49.1,29.78,SSW,193,0.0,4.0,58,0.00,,,0.00,meteobridge,2016-08-27 11:22:00,
2016-08-27 04:27:00,64.0,49.5,29.78,SSW,197,6.0,6.0,59,0.00,,,0.00,meteobridge,2016-08-27 11:27:00,
2016-08-27 04:32:00,63.9,49.6,29.78,SSE,156,2.9,8.1,60,0.00,,,0.00,meteobridge,2016-08-27 11:32:00,
2016-08-27 04:37:00,63.9,50.2,29.78,South,191,4.0,6.9,61,0.00,,,0.00,meteobridge,2016-08-27 11:37:00,
2016-08-27 04:42:00,63.3,50.5,29.78,SSE,159,2.0,6.0,63,0.00,,,0.00,meteobridge,2016-08-27 11:42:00,
2016-08-27 04:47:00,63.0,51.4,29.78,South,186,8.1,10.1,66,0.00,,,0.00,meteobridge,2016-08-27 11:47:00,
2016-08-27 04:52:00,62.6,52.0,29.78,ESE,121,6.9,8.9,68,0.00,,,0.00,meteobridge,2016-08-27 11:52:00,
2016-08-27 04:57:00,62.2,52.3,29.79,SW,219,4.9,6.9,70,0.00,,,0.00,meteobridge,2016-08-27 11:57:00,
2016-08-27 05:02:00,61.9,52.3,29.79,SW,233,2.9,8.9,71,0.00,,,0.00,meteobridge,2016-08-27 12:02:00,
2016-08-27 05:07:00,61.3,53.1,29.79,SSE,149,2.0,6.9,74,0.00,,,0.00,meteobridge,2016-08-27 12:07:00,
2016-08-27 05:12:00,61.0,53.4,29.79,SE,141,2.9,11.0,76,0.00,,,0.00,meteobridge,2016-08-27 12:12:00,
2016-08-27 05:17:00,60.4,53.6,29.79,SSW,206,2.9,6.0,78,0.00,,,0.00,meteobridge,2016-08-27 12:17:00,
2016-08-27 05:22:00,60.3,54.1,29.79,SE,136,6.9,6.9,80,0.00,,,0.00,meteobridge,2016-08-27 12:22:00,
2016-08-27 05:27:00,59.9,54.1,29.79,South,183,11.0,12.1,81,0.00,,,0.00,meteobridge,2016-08-27 12:27:00,
2016-08-27 05:32:00,59.7,54.0,29.79,SE,131,8.1,8.9,81,0.00,,,0.00,meteobridge,2016-08-27 12:32:00,
2016-08-27 05:37:00,59.5,54.0,29.79,South,174,4.0,12.1,82,0.00,,,0.00,meteobridge,2016-08-27 12:37:00,
2016-08-27 05:42:00,59.5,54.3,29.80,South,178,10.1,10.1,83,0.00,,,0.00,meteobridge,2016-08-27 12:42:00,
2016-08-27 05:47:00,59.4,54.1,29.80,SSE,150,0.0,4.9,83,0.00,,,0.00,meteobridge,2016-08-27 12:47:00,
2016-08-27 05:52:00,59.4,54.5,29.80,SW,228,2.9,10.1,84,0.00,,,0.00,meteobridge,2016-08-27 12:52:00,
2016-08-27 05:57:00,59.2,54.7,29.80,SSW,198,2.9,6.9,85,0.00,,,0.00,meteobridge,2016-08-27 12:57:00,
2016-08-27 06:02:00,59.2,54.7,29.80,South,178,4.9,8.9,85,0.00,,,0.00,meteobridge,2016-08-27 13:02:00,
2016-08-27 06:07:00,59.2,54.7,29.80,SSE,165,6.9,11.0,85,0.00,,,0.00,meteobridge,2016-08-27 13:07:00,
2016-08-27 06:12:00,59.2,54.7,29.80,SSE,160,4.9,10.1,85,0.00,,,0.00,meteobridge,2016-08-27 13:12:00,
2016-08-27 06:17:00,59.2,54.7,29.80,SSW,212,8.1,11.0,85,0.00,,,0.00,meteobridge,2016-08-27 13:17:00,
2016-08-27 06:22:00,59.2,55.0,29.80,SSW,209,4.0,10.1,86,0.00,,,0.00,meteobridge,2016-08-27 13:22:00,
2016-08-27 06:27:00,59.2,55.0,29.80,South,175,6.9,8.9,86,0.00,,,0.00,meteobridge,2016-08-27 13:27:00,
2016-08-27 06:32:00,59.2,55.0,29.80,South,178,6.9,8.1,86,0.00,,,0.00,meteobridge,2016-08-27 13:32:00,
2016-08-27 06:37:00,59.2,55.0,29.80,SSW,206,2.9,13.0,86,0.00,,,0.00,meteobridge,2016-08-27 13:37:00,
2016-08-27 06:42:00,59.4,55.2,29.80,South,190,6.9,10.1,86,0.00,,,0.00,meteobridge,2016-08-27 13:42:00,
2016-08-27 06:47:00,59.4,55.2,29.80,SE,128,2.0,8.9,86,0.00,,,0.00,meteobridge,2016-08-27 13:47:00,
2016-08-27 06:52:00,59.5,55.0,29.81,South,186,8.9,10.1,85,0.00,,,0.00,meteobridge,2016-08-27 13:52:00,
2016-08-27 06:57:00,59.5,55.4,29.80,ESE,115,6.9,8.9,86,0.00,,,0.00,meteobridge,2016-08-27 13:57:00,
2016-08-27 07:02:00,59.7,55.2,29.80,South,185,2.0,8.9,85,0.00,,,0.00,meteobridge,2016-08-27 14:02:00,
2016-08-27 07:07:00,60.1,55.6,29.81,East,96,8.1,15.0,85,0.00,,,0.00,meteobridge,2016-08-27 14:07:00,
2016-08-27 07:12:00,59.9,55.4,29.80,SSE,153,13.0,17.0,85,0.00,,,0.00,meteobridge,2016-08-27 14:12:00,
2016-08-27 07:17:00,59.7,55.2,29.82,South,176,8.1,14.1,85,0.00,,,0.00,meteobridge,2016-08-27 14:17:00,
2016-08-27 07:22:00,59.7,55.2,29.81,SW,221,10.1,10.1,85,0.00,,,0.00,meteobridge,2016-08-27 14:22:00,
2016-08-27 07:27:00,59.7,55.2,29.82,SW,216,4.9,16.1,85,0.00,,,0.00,meteobridge,2016-08-27 14:27:00,
2016-08-27 07:32:00,59.9,55.4,29.81,SE,144,8.9,16.1,85,0.00,,,0.00,meteobridge,2016-08-27 14:32:00,
2016-08-27 07:37:00,59.9,55.4,29.82,SSW,211,8.1,13.0,85,0.00,,,0.00,meteobridge,2016-08-27 14:37:00,
2016-08-27 07:42:00,60.1,55.6,29.82,SE,141,8.1,12.1,85,0.00,,,0.00,meteobridge,2016-08-27 14:42:00,
2016-08-27 07:47:00,60.1,55.2,29.83,SE,142,12.1,15.0,84,0.00,,,0.00,meteobridge,2016-08-27 14:47:00,
2016-08-27 07:52:00,60.1,55.2,29.82,South,175,6.0,15.0,84,0.00,,,0.00,meteobridge,2016-08-27 14:52:00,
2016-08-27 07:57:00,60.1,55.2,29.82,SSE,153,6.0,12.1,84,0.00,,,0.00,meteobridge,2016-08-27 14:57:00,
2016-08-27 08:02:00,60.3,55.4,29.83,South,169,4.0,14.1,84,0.00,,,0.00,meteobridge,2016-08-27 15:02:00,
2016-08-27 08:07:00,60.3,55.4,29.83,SW,215,2.0,11.0,84,0.00,,,0.00,meteobridge,2016-08-27 15:07:00,
2016-08-27 08:12:00,60.3,55.0,29.83,SSE,160,2.9,10.1,83,0.00,,,0.00,meteobridge,2016-08-27 15:12:00,
2016-08-27 08:17:00,60.4,55.2,29.83,SSW,205,2.9,12.1,83,0.00,,,0.00,meteobridge,2016-08-27 15:17:00,
2016-08-27 08:22:00,60.6,55.4,29.83,SSW,207,4.9,8.1,83,0.00,,,0.00,meteobridge,2016-08-27 15:22:00,
2016-08-27 08:27:00,60.6,55.4,29.83,SSW,195,2.0,4.9,83,0.00,,,0.00,meteobridge,2016-08-27 15:27:00,
2016-08-27 08:32:00,60.8,55.6,29.83,ESE,118,4.0,6.9,83,0.00,,,0.00,meteobridge,2016-08-27 15:32:00,
2016-08-27 08:37:00,61.0,55.4,29.83,SW,214,4.9,14.1,82,0.00,,,0.00,meteobridge,2016-08-27 15:37:00,
2016-08-27 08:42:00,61.0,55.8,29.83,SSW,205,2.0,8.1,83,0.00,,,0.00,meteobridge,2016-08-27 15:42:00,
2016-08-27 08:47:00,61.2,55.9,29.84,SW,220,4.9,6.0,83,0.00,,,0.00,meteobridge,2016-08-27 15:47:00,
2016-08-27 08:52:00,61.2,55.6,29.84,SE,135,4.0,6.9,82,0.00,,,0.00,meteobridge,2016-08-27 15:52:00,
2016-08-27 08:57:00,61.2,55.6,29.83,SSW,203,2.9,8.1,82,0.00,,,0.00,meteobridge,2016-08-27 15:57:00,
2016-08-27 09:03:00,61.3,55.8,29.84,SE,126,4.0,6.9,82,0.00,,,0.00,meteobridge,2016-08-27 16:03:00,
2016-08-27 09:08:00,61.2,55.6,29.84,SSE,155,2.9,6.0,82,0.00,,,0.00,meteobridge,2016-08-27 16:08:00,
2016-08-27 09:13:00,61.2,55.6,29.84,South,182,4.0,12.1,82,0.00,,,0.00,meteobridge,2016-08-27 16:13:00,
2016-08-27 09:18:00,61.3,55.8,29.84,ESE,122,6.9,6.9,82,0.00,,,0.00,meteobridge,2016-08-27 16:18:00,
2016-08-27 09:23:00,61.3,55.8,29.84,SSW,197,2.0,6.9,82,0.00,,,0.00,meteobridge,2016-08-27 16:23:00,
2016-08-27 09:28:00,61.5,55.9,29.84,SW,219,0.9,6.9,82,0.00,,,0.00,meteobridge,2016-08-27 16:28:00,
2016-08-27 09:33:00,61.5,55.9,29.84,SSE,150,2.0,6.0,82,0.00,,,0.00,meteobridge,2016-08-27 16:33:00,
2016-08-27 09:38:00,61.7,56.1,29.84,South,188,6.0,8.9,82,0.00,,,0.00,meteobridge,2016-08-27 16:38:00,
2016-08-27 09:43:00,61.9,56.3,29.84,SSE,150,6.9,6.9,82,0.00,,,0.00,meteobridge,2016-08-27 16:43:00,
2016-08-27 09:48:00,62.1,56.1,29.84,ENE,71,6.9,8.1,81,0.00,,,0.00,meteobridge,2016-08-27 16:48:00,
2016-08-27 09:53:00,62.2,56.3,29.85,SSE,167,6.9,12.1,81,0.00,,,0.00,meteobridge,2016-08-27 16:53:00,
2016-08-27 09:58:00,62.4,56.5,29.85,South,169,2.0,2.9,81,0.00,,,0.00,meteobridge,2016-08-27 16:58:00,
2016-08-27 10:03:00,62.4,56.1,29.85,SSW,195,6.9,11.0,80,0.00,,,0.00,meteobridge,2016-08-27 17:03:00,
2016-08-27 10:08:00,62.4,56.5,29.85,SSW,210,4.0,8.1,81,0.00,,,0.00,meteobridge,2016-08-27 17:08:00,
2016-08-27 10:13:00,62.4,56.1,29.85,SSE,166,8.9,8.9,80,0.00,,,0.00,meteobridge,2016-08-27 17:13:00,
2016-08-27 10:18:00,62.6,56.7,29.85,SW,221,2.9,4.9,81,0.00,,,0.00,meteobridge,2016-08-27 17:18:00,
2016-08-27 10:23:00,62.8,56.5,29.85,SE,135,10.1,12.1,80,0.00,,,0.00,meteobridge,2016-08-27 17:23:00,
2016-08-27 10:28:00,62.8,56.5,29.85,South,186,4.9,8.9,80,0.00,,,0.00,meteobridge,2016-08-27 17:28:00,
2016-08-27 10:33:00,62.2,55.9,29.85,South,191,2.9,10.1,80,0.00,,,0.00,meteobridge,2016-08-27 17:33:00,
2016-08-27 10:38:00,62.2,55.9,29.85,SSW,201,4.9,10.1,80,0.00,,,0.00,meteobridge,2016-08-27 17:38:00,
2016-08-27 10:43:00,62.2,55.6,29.85,SW,234,8.1,17.9,79,0.00,,,0.00,meteobridge,2016-08-27 17:43:00,
2016-08-27 10:48:00,62.2,55.6,29.86,SE,131,4.9,10.1,79,0.00,,,0.00,meteobridge,2016-08-27 17:48:00,
2016-08-27 10:53:00,62.4,55.4,29.85,SE,139,4.0,8.9,78,0.00,,,0.00,meteobridge,2016-08-27 17:53:00,
2016-08-27 10:58:00,62.6,55.6,29.85,SSW,201,4.9,17.9,78,0.00,,,0.00,meteobridge,2016-08-27 17:58:00,
2016-08-27 11:03:00,62.6,55.6,29.85,SSE,161,4.0,13.0,78,0.00,,,0.00,meteobridge,2016-08-27 18:03:00,
2016-08-27 11:08:00,63.0,55.6,29.86,SSW,198,8.1,13.0,77,0.00,,,0.00,meteobridge,2016-08-27 18:08:00,
2016-08-27 11:13:00,62.8,55.4,29.85,South,186,8.9,15.0,77,0.00,,,0.00,meteobridge,2016-08-27 18:13:00,
2016-08-27 11:18:00,62.6,55.6,29.86,SSE,152,8.9,17.0,78,0.00,,,0.00,meteobridge,2016-08-27 18:18:00,
2016-08-27 11:23:00,62.6,55.6,29.86,South,190,10.1,16.1,78,0.00,,,0.00,meteobridge,2016-08-27 18:23:00,
2016-08-27 11:28:00,62.4,55.4,29.86,South,188,8.1,11.0,78,0.00,,,0.00,meteobridge,2016-08-27 18:28:00,
2016-08-27 11:33:00,62.6,55.6,29.86,SW,214,8.9,11.0,78,0.00,,,0.00,meteobridge,2016-08-27 18:33:00,
2016-08-27 11:38:00,62.8,55.8,29.86,SSW,195,6.9,13.0,78,0.00,,,0.00,meteobridge,2016-08-27 18:38:00,
2016-08-27 11:43:00,62.8,55.8,29.86,SW,216,8.1,16.1,78,0.00,,,0.00,meteobridge,2016-08-27 18:43:00,
2016-08-27 11:48:00,63.1,56.1,29.86,SSE,163,4.0,6.0,78,0.00,,,0.00,meteobridge,2016-08-27 18:48:00,
2016-08-27 11:53:00,63.3,55.9,29.86,SSW,207,6.0,6.0,77,0.00,,,0.00,meteobridge,2016-08-27 18:53:00,
2016-08-27 11:58:00,63.7,55.9,29.86,SSE,164,4.9,11.0,76,0.00,,,0.00,meteobridge,2016-08-27 18:58:00,
2016-08-27 12:03:00,63.9,56.1,29.86,SW,230,0.0,8.9,76,0.00,,,0.00,meteobridge,2016-08-27 19:03:00,
2016-08-27 12:08:00,64.4,56.3,29.86,SSW,203,2.9,6.9,75,0.00,,,0.00,meteobridge,2016-08-27 19:08:00,
2016-08-27 12:13:00,64.8,56.7,29.87,SSE,154,2.0,6.9,75,0.00,,,0.00,meteobridge,2016-08-27 19:13:00,
2016-08-27 12:18:00,64.9,56.5,29.87,WSW,238,4.0,6.9,74,0.00,,,0.00,meteobridge,2016-08-27 19:18:00,
2016-08-27 12:23:00,64.9,56.5,29.87,SSW,198,4.9,16.1,74,0.00,,,0.00,meteobridge,2016-08-27 19:23:00,
2016-08-27 12:28:00,64.9,56.5,29.87,South,188,0.9,8.9,74,0.00,,,0.00,meteobridge,2016-08-27 19:28:00,
2016-08-27 12:33:00,65.1,56.3,29.87,SW,221,8.9,13.0,73,0.00,,,0.00,meteobridge,2016-08-27 19:33:00,
2016-08-27 12:38:00,65.5,56.7,29.87,SE,129,0.9,17.0,73,0.00,,,0.00,meteobridge,2016-08-27 19:38:00,
2016-08-27 12:43:00,65.8,56.5,29.87,SSW,213,2.0,11.0,72,0.00,,,0.00,meteobridge,2016-08-27 19:43:00,
2016-08-27 12:48:00,65.8,56.5,29.88,SSW,198,8.9,13.0,72,0.00,,,0.00,meteobridge,2016-08-27 19:48:00,
2016-08-27 12:53:00,66.0,56.7,29.87,SSW,192,11.0,11.0,72,0.00,,,0.00,meteobridge,2016-08-27 19:53:00,
2016-08-27 12:58:00,66.0,56.7,29.88,SSW,198,6.0,13.0,72,0.00,,,0.00,meteobridge,2016-08-27 19:58:00,
2016-08-27 13:03:00,65.7,56.3,29.88,SSW,198,2.9,10.1,72,0.00,,,0.00,meteobridge,2016-08-27 20:03:00,
2016-08-27 13:08:00,64.9,56.1,29.88,WSW,252,12.1,23.0,73,0.00,,,0.00,meteobridge,2016-08-27 20:08:00,
2016-08-27 13:13:00,64.8,56.3,29.88,SSW,210,0.9,12.1,74,0.00,,,0.00,meteobridge,2016-08-27 20:13:00,
2016-08-27 13:18:00,64.8,56.3,29.88,SW,233,10.1,16.1,74,0.00,,,0.00,meteobridge,2016-08-27 20:18:00,
2016-08-27 13:23:00,64.9,56.5,29.88,NNW,339,0.0,4.9,74,0.00,,,0.00,meteobridge,2016-08-27 20:23:00,
2016-08-27 13:28:00,65.1,56.3,29.88,SSW,195,4.0,13.0,73,0.00,,,0.00,meteobridge,2016-08-27 20:28:00,